owner,sensor,date,latitude,longitude,vertical_datum,wind_speed,wind_to_direction,wind_speed_of_gust,qcFlag 
LUMCON,ioos:station:LUMCON:105:1,2004-10-01T00:00:00Z,29.1874,-90.6654,1.0,5.1,140.0,6.2,'11111222,11111222,11111222' 
LUMCON,ioos:station:LUMCON:105:1,2004-10-01T01:00:00Z,29.1874,-90.6654,1.0,4.6,140.0,5.7,'11111222,11111222,11111222' 
LUMCON,ioos:station:LUMCON:105:1,2004-10-01T02:00:00Z,29.1874,-90.6654,1.0,4.6,130.0,5.7,'11111222,11111222,11111222' 
LUMCON,ioos:station:LUMCON:105:1,2004-10-01T03:00:00Z,29.1874,-90.6654,1.0,5.7,130.0,6.2,'11111222,11111222,11111222' 
LUMCON,ioos:station:LUMCON:105:1,2004-10-01T04:00:00Z,29.1874,-90.6654,1.0,5.7,130.0,6.7,'11111222,11111222,11111222' 
LUMCON,ioos:station:LUMCON:105:1,2004-10-01T05:00:00Z,29.1874,-90.6654,1.0,5.7,140.0,6.7,'11111222,11111222,11111222' 
LUMCON,ioos:station:LUMCON:105:1,2004-10-01T06:00:00Z,29.1874,-90.6654,1.0,5.1,140.0,6.2,'11111222,11111222,11111222' 
LUMCON,ioos:station:LUMCON:105:1,2004-10-01T07:00:00Z,29.1874,-90.6654,1.0,4.6,150.0,5.7,'11111222,11111222,11111222' 
LUMCON,ioos:station:LUMCON:105:1,2004-10-01T08:00:00Z,29.1874,-90.6654,1.0,4.6,140.0,5.7,'11111222,11111222,11111222' 
LUMCON,ioos:station:LUMCON:105:1,2004-10-01T09:00:00Z,29.1874,-90.6654,1.0,4.6,150.0,5.7,'11111222,11111222,11111222' 
LUMCON,ioos:station:LUMCON:105:1,2004-10-01T10:00:00Z,29.1874,-90.6654,1.0,4.6,150.0,5.7,'11111222,11111222,11111222' 
LUMCON,ioos:station:LUMCON:105:1,2004-10-01T11:00:00Z,29.1874,-90.6654,1.0,4.6,150.0,5.7,'11111222,11111222,11111222' 
LUMCON,ioos:station:LUMCON:105:1,2004-10-01T12:00:00Z,29.1874,-90.6654,1.0,4.6,140.0,5.7,'11111222,11111222,11111222' 
LUMCON,ioos:station:LUMCON:105:1,2004-10-01T13:00:00Z,29.1874,-90.6654,1.0,4.6,140.0,5.7,'11111222,11111222,11111222' 
LUMCON,ioos:station:LUMCON:105:1,2004-10-01T14:00:00Z,29.1874,-90.6654,1.0,3.6,130.0,4.6,'11111222,11111222,11111222' 
LUMCON,ioos:station:LUMCON:105:1,2004-10-01T15:00:00Z,29.1874,-90.6654,1.0,3.1,160.0,3.6,'11111222,11111222,11111222' 
LUMCON,ioos:station:LUMCON:105:1,2004-10-01T16:00:00Z,29.1874,-90.6654,1.0,2.6,160.0,3.1,'11111222,11111222,11111222' 
LUMCON,ioos:station:LUMCON:105:1,2004-10-01T17:00:00Z,29.1874,-90.6654,1.0,2.6,170.0,3.1,'11111222,11111222,11111222' 
LUMCON,ioos:station:LUMCON:105:1,2004-10-01T18:00:00Z,29.1874,-90.6654,1.0,1.5,160.0,2.6,'11111222,11111222,11111222' 
LUMCON,ioos:station:LUMCON:105:1,2004-10-01T19:00:00Z,29.1874,-90.6654,1.0,2.1,140.0,2.6,'11111222,11111222,11111222' 
LUMCON,ioos:station:LUMCON:105:1,2004-10-01T20:00:00Z,29.1874,-90.6654,1.0,2.6,160.0,3.1,'11111222,11111222,11111222' 
LUMCON,ioos:station:LUMCON:105:1,2004-10-01T21:00:00Z,29.1874,-90.6654,1.0,3.1,160.0,3.6,'11111222,11111222,11111222' 
LUMCON,ioos:station:LUMCON:105:1,2004-10-01T22:00:00Z,29.1874,-90.6654,1.0,2.6,170.0,3.1,'11111222,11111222,11111222' 
LUMCON,ioos:station:LUMCON:105:1,2004-10-01T23:00:00Z,29.1874,-90.6654,1.0,3.1,170.0,3.6,'11111222,11111222,11111222' 
LUMCON,ioos:station:LUMCON:105:1,2004-10-02T00:00:00Z,29.1874,-90.6654,1.0,3.1,180.0,3.6,'11111222,11111222,11111222' 
LUMCON,ioos:station:LUMCON:105:1,2004-10-02T01:00:00Z,29.1874,-90.6654,1.0,3.6,180.0,3.6,'11111222,11111222,11111222' 
LUMCON,ioos:station:LUMCON:105:1,2004-10-02T02:00:00Z,29.1874,-90.6654,1.0,3.6,170.0,4.1,'11111222,11111222,11111222' 
LUMCON,ioos:station:LUMCON:105:1,2004-10-02T04:00:00Z,29.1874,-90.6654,1.0,4.6,160.0,5.7,'11111222,11111222,11111222' 
LUMCON,ioos:station:LUMCON:105:1,2004-10-02T05:00:00Z,29.1874,-90.6654,1.0,4.1,170.0,4.6,'11111222,11111222,11111222' 
LUMCON,ioos:station:LUMCON:105:1,2004-10-02T06:00:00Z,29.1874,-90.6654,1.0,4.1,160.0,4.6,'11111222,11111222,11111222' 
LUMCON,ioos:station:LUMCON:105:1,2004-10-02T07:00:00Z,29.1874,-90.6654,1.0,2.6,150.0,3.6,'11111222,11111222,11111222' 
LUMCON,ioos:station:LUMCON:105:1,2004-10-02T08:00:00Z,29.1874,-90.6654,1.0,3.1,150.0,3.1,'11111222,11111222,11111222' 
LUMCON,ioos:station:LUMCON:105:1,2004-10-02T09:00:00Z,29.1874,-90.6654,1.0,2.1,130.0,2.6,'11111222,11111222,11111222' 
LUMCON,ioos:station:LUMCON:105:1,2004-10-02T10:00:00Z,29.1874,-90.6654,1.0,3.1,140.0,3.6,'11111222,11111222,11111222' 
LUMCON,ioos:station:LUMCON:105:1,2004-10-02T11:00:00Z,29.1874,-90.6654,1.0,2.6,140.0,3.1,'11111222,11111222,11111222' 
LUMCON,ioos:station:LUMCON:105:1,2004-10-02T12:00:00Z,29.1874,-90.6654,1.0,2.1,120.0,2.6,'11111222,11111222,11111222' 
LUMCON,ioos:station:LUMCON:105:1,2004-10-02T13:00:00Z,29.1874,-90.6654,1.0,2.1,120.0,2.6,'11111222,11111222,11111222' 
LUMCON,ioos:station:LUMCON:105:1,2004-10-02T14:00:00Z,29.1874,-90.6654,1.0,2.1,120.0,2.6,'11111222,11111222,11111222' 
LUMCON,ioos:station:LUMCON:105:1,2004-10-02T15:00:00Z,29.1874,-90.6654,1.0,2.1,60.0,2.6,'11111222,11111222,11111222' 
LUMCON,ioos:station:LUMCON:105:1,2004-10-02T16:00:00Z,29.1874,-90.6654,1.0,2.1,80.0,2.6,'11111222,11111222,11111222' 
LUMCON,ioos:station:LUMCON:105:1,2004-10-02T17:00:00Z,29.1874,-90.6654,1.0,2.1,70.0,3.1,'11111222,11111222,11111222' 
LUMCON,ioos:station:LUMCON:105:1,2004-10-02T18:00:00Z,29.1874,-90.6654,1.0,3.1,120.0,3.6,'11111222,11111222,11111222' 
LUMCON,ioos:station:LUMCON:105:1,2004-10-02T19:00:00Z,29.1874,-90.6654,1.0,3.1,130.0,4.1,'11111222,11111222,11111222' 
LUMCON,ioos:station:LUMCON:105:1,2004-10-02T20:00:00Z,29.1874,-90.6654,1.0,3.1,160.0,4.1,'11111222,11111222,11111222' 
LUMCON,ioos:station:LUMCON:105:1,2004-10-02T21:00:00Z,29.1874,-90.6654,1.0,2.6,150.0,3.1,'11111222,11111222,11111222' 
LUMCON,ioos:station:LUMCON:105:1,2004-10-02T22:00:00Z,29.1874,-90.6654,1.0,4.1,140.0,4.6,'11111222,11111222,11111222' 
LUMCON,ioos:station:LUMCON:105:1,2004-10-02T23:00:00Z,29.1874,-90.6654,1.0,4.1,160.0,4.6,'11111222,11111222,11111222' 
LUMCON,ioos:station:LUMCON:105:1,2004-10-03T00:00:00Z,29.1874,-90.6654,1.0,3.6,170.0,4.1,'11111222,11111222,11111222' 
LUMCON,ioos:station:LUMCON:105:1,2004-10-03T01:00:00Z,29.1874,-90.6654,1.0,3.1,170.0,4.1,'11111222,11111222,11111222' 
LUMCON,ioos:station:LUMCON:105:1,2004-10-03T02:00:00Z,29.1874,-90.6654,1.0,2.1,220.0,2.6,'11111222,11111222,11111222' 
LUMCON,ioos:station:LUMCON:105:1,2004-10-03T03:00:00Z,29.1874,-90.6654,1.0,1.5,190.0,2.1,'11111222,11111222,11111222' 
LUMCON,ioos:station:LUMCON:105:1,2004-10-03T04:00:00Z,29.1874,-90.6654,1.0,2.1,190.0,2.6,'11111222,11111222,11111222' 
LUMCON,ioos:station:LUMCON:105:1,2004-10-03T05:00:00Z,29.1874,-90.6654,1.0,2.6,170.0,3.1,'11111222,11111222,11111222' 
LUMCON,ioos:station:LUMCON:105:1,2004-10-03T06:00:00Z,29.1874,-90.6654,1.0,2.1,160.0,3.1,'11111222,11111222,11111222' 
LUMCON,ioos:station:LUMCON:105:1,2004-10-03T07:00:00Z,29.1874,-90.6654,1.0,1.5,170.0,2.6,'11111222,11111222,11111222' 
LUMCON,ioos:station:LUMCON:105:1,2004-10-03T08:00:00Z,29.1874,-90.6654,1.0,0.5,290.0,1.0,'11111222,11111222,11111222' 
LUMCON,ioos:station:LUMCON:105:1,2004-10-03T09:00:00Z,29.1874,-90.6654,1.0,0.0,250.0,0.0,'11111222,11111222,11111222' 
LUMCON,ioos:station:LUMCON:105:1,2004-10-03T10:00:00Z,29.1874,-90.6654,1.0,0.5,10.0,1.0,'11111222,11111222,11111222' 
LUMCON,ioos:station:LUMCON:105:1,2004-10-03T11:00:00Z,29.1874,-90.6654,1.0,2.6,10.0,3.1,'11111222,11111222,11111222' 
LUMCON,ioos:station:LUMCON:105:1,2004-10-03T12:00:00Z,29.1874,-90.6654,1.0,2.6,0.0,3.1,'11111222,11111222,11111222' 
LUMCON,ioos:station:LUMCON:105:1,2004-10-03T13:00:00Z,29.1874,-90.6654,1.0,2.6,0.0,3.6,'11111222,11111222,11111222' 
LUMCON,ioos:station:LUMCON:105:1,2004-10-03T14:00:00Z,29.1874,-90.6654,1.0,2.6,10.0,3.1,'11111222,11111222,11111222' 
LUMCON,ioos:station:LUMCON:105:1,2004-10-03T15:00:00Z,29.1874,-90.6654,1.0,3.1,60.0,4.1,'11111222,11111222,11111222' 
LUMCON,ioos:station:LUMCON:105:1,2004-10-03T16:00:00Z,29.1874,-90.6654,1.0,2.1,60.0,2.6,'11111222,11111222,11111222' 
LUMCON,ioos:station:LUMCON:105:1,2004-10-03T17:00:00Z,29.1874,-90.6654,1.0,2.1,90.0,3.1,'11111222,11111222,11111222' 
LUMCON,ioos:station:LUMCON:105:1,2004-10-03T18:00:00Z,29.1874,-90.6654,1.0,2.6,110.0,3.6,'11111222,11111222,11111222' 
LUMCON,ioos:station:LUMCON:105:1,2004-10-03T19:00:00Z,29.1874,-90.6654,1.0,2.6,120.0,3.1,'11111222,11111222,11111222' 
LUMCON,ioos:station:LUMCON:105:1,2004-10-03T20:00:00Z,29.1874,-90.6654,1.0,2.6,140.0,3.6,'11111222,11111222,11111222' 
LUMCON,ioos:station:LUMCON:105:1,2004-10-03T21:00:00Z,29.1874,-90.6654,1.0,3.6,140.0,4.6,'11111222,11111222,11111222' 
LUMCON,ioos:station:LUMCON:105:1,2004-10-03T22:00:00Z,29.1874,-90.6654,1.0,3.6,180.0,4.6,'11111222,11111222,11111222' 
LUMCON,ioos:station:LUMCON:105:1,2004-10-03T23:00:00Z,29.1874,-90.6654,1.0,4.1,170.0,4.6,'11111222,11111222,11111222' 
LUMCON,ioos:station:LUMCON:105:1,2004-10-04T00:00:00Z,29.1874,-90.6654,1.0,4.1,150.0,5.1,'11111222,11111222,11111222' 
LUMCON,ioos:station:LUMCON:105:1,2004-10-04T01:00:00Z,29.1874,-90.6654,1.0,3.6,180.0,4.6,'11111222,11111222,11111222' 
LUMCON,ioos:station:LUMCON:105:1,2004-10-04T02:00:00Z,29.1874,-90.6654,1.0,2.1,210.0,3.1,'11111222,11111222,11111222' 
LUMCON,ioos:station:LUMCON:105:1,2004-10-04T03:00:00Z,29.1874,-90.6654,1.0,1.5,230.0,2.1,'11111222,11111222,11111222' 
LUMCON,ioos:station:LUMCON:105:1,2004-10-04T04:00:00Z,29.1874,-90.6654,1.0,1.0,300.0,2.6,'11111222,11111222,11111222' 
LUMCON,ioos:station:LUMCON:105:1,2004-10-04T05:00:00Z,29.1874,-90.6654,1.0,1.5,280.0,2.1,'11111222,11111222,11111222' 
LUMCON,ioos:station:LUMCON:105:1,2004-10-04T06:00:00Z,29.1874,-90.6654,1.0,1.0,280.0,2.1,'11111222,11111222,11111222' 
LUMCON,ioos:station:LUMCON:105:1,2004-10-04T07:00:00Z,29.1874,-90.6654,1.0,3.6,0.0,4.6,'11111222,11111222,11111222' 
LUMCON,ioos:station:LUMCON:105:1,2004-10-04T08:00:00Z,29.1874,-90.6654,1.0,1.0,30.0,2.1,'11111222,11111222,11111222' 
LUMCON,ioos:station:LUMCON:105:1,2004-10-04T09:00:00Z,29.1874,-90.6654,1.0,2.6,40.0,3.1,'11111222,11111222,11111222' 
LUMCON,ioos:station:LUMCON:105:1,2004-10-04T10:00:00Z,29.1874,-90.6654,1.0,2.1,40.0,3.1,'11111222,11111222,11111222' 
LUMCON,ioos:station:LUMCON:105:1,2004-10-04T11:00:00Z,29.1874,-90.6654,1.0,2.6,30.0,3.1,'11111222,11111222,11111222' 
LUMCON,ioos:station:LUMCON:105:1,2004-10-04T12:00:00Z,29.1874,-90.6654,1.0,2.6,30.0,3.1,'11111222,11111222,11111222' 
LUMCON,ioos:station:LUMCON:105:1,2004-10-04T13:00:00Z,29.1874,-90.6654,1.0,1.5,60.0,2.6,'11111222,11111222,11111222' 
LUMCON,ioos:station:LUMCON:105:1,2004-10-04T14:00:00Z,29.1874,-90.6654,1.0,3.1,50.0,3.6,'11111222,11111222,11111222' 
LUMCON,ioos:station:LUMCON:105:1,2004-10-04T15:00:00Z,29.1874,-90.6654,1.0,3.1,60.0,3.6,'11111222,11111222,11111222' 
LUMCON,ioos:station:LUMCON:105:1,2004-10-04T16:00:00Z,29.1874,-90.6654,1.0,3.1,60.0,3.6,'11111222,11111222,11111222' 
LUMCON,ioos:station:LUMCON:105:1,2004-10-04T17:00:00Z,29.1874,-90.6654,1.0,3.1,90.0,4.1,'11111222,11111222,11111222' 
LUMCON,ioos:station:LUMCON:105:1,2004-10-04T18:00:00Z,29.1874,-90.6654,1.0,2.6,100.0,4.1,'11111222,11111222,11111222' 
LUMCON,ioos:station:LUMCON:105:1,2004-10-04T19:00:00Z,29.1874,-90.6654,1.0,2.1,150.0,3.6,'11111222,11111222,11111222' 
LUMCON,ioos:station:LUMCON:105:1,2004-10-04T21:00:00Z,29.1874,-90.6654,1.0,3.6,160.0,4.6,'11111222,11111222,11111222' 
LUMCON,ioos:station:LUMCON:105:1,2004-10-04T22:00:00Z,29.1874,-90.6654,1.0,7.2,120.0,9.3,'11111222,11111222,11111222' 
LUMCON,ioos:station:LUMCON:105:1,2004-10-04T23:00:00Z,29.1874,-90.6654,1.0,5.7,100.0,6.7,'11111222,11111222,11111222' 
LUMCON,ioos:station:LUMCON:105:1,2004-10-05T00:00:00Z,29.1874,-90.6654,1.0,4.6,150.0,5.1,'11111222,11111222,11111222' 
LUMCON,ioos:station:LUMCON:105:1,2004-10-05T01:00:00Z,29.1874,-90.6654,1.0,11.8,350.0,18.5,'11111222,11111222,11111222' 
LUMCON,ioos:station:LUMCON:105:1,2004-10-05T02:00:00Z,29.1874,-90.6654,1.0,3.1,80.0,4.6,'11111222,11111222,11111222' 
LUMCON,ioos:station:LUMCON:105:1,2004-10-05T03:00:00Z,29.1874,-90.6654,1.0,6.2,100.0,7.7,'11111222,11111222,11111222' 
LUMCON,ioos:station:LUMCON:105:1,2004-10-05T04:00:00Z,29.1874,-90.6654,1.0,2.6,100.0,3.6,'11111222,11111222,11111222' 
LUMCON,ioos:station:LUMCON:105:1,2004-10-05T05:00:00Z,29.1874,-90.6654,1.0,4.6,70.0,6.7,'11111222,11111222,11111222' 
LUMCON,ioos:station:LUMCON:105:1,2004-10-05T06:00:00Z,29.1874,-90.6654,1.0,5.1,70.0,6.2,'11111222,11111222,11111222' 
LUMCON,ioos:station:LUMCON:105:1,2004-10-05T07:00:00Z,29.1874,-90.6654,1.0,4.1,80.0,5.1,'11111222,11111222,11111222' 
LUMCON,ioos:station:LUMCON:105:1,2004-10-05T08:00:00Z,29.1874,-90.6654,1.0,5.7,70.0,6.2,'11111222,11111222,11111222' 
LUMCON,ioos:station:LUMCON:105:1,2004-10-05T09:00:00Z,29.1874,-90.6654,1.0,4.6,70.0,5.7,'11111222,11111222,11111222' 
LUMCON,ioos:station:LUMCON:105:1,2004-10-05T10:00:00Z,29.1874,-90.6654,1.0,7.7,110.0,9.8,'11111222,11111222,11111222' 
LUMCON,ioos:station:LUMCON:105:1,2004-10-05T11:00:00Z,29.1874,-90.6654,1.0,3.6,110.0,5.1,'11111222,11111222,11111222' 
LUMCON,ioos:station:LUMCON:105:1,2004-10-05T12:00:00Z,29.1874,-90.6654,1.0,2.6,100.0,3.6,'11111222,11111222,11111222' 
LUMCON,ioos:station:LUMCON:105:1,2004-10-05T13:00:00Z,29.1874,-90.6654,1.0,3.6,80.0,4.6,'11111222,11111222,11111222' 
LUMCON,ioos:station:LUMCON:105:1,2004-10-05T14:00:00Z,29.1874,-90.6654,1.0,5.7,40.0,6.7,'11111222,11111222,11111222' 
LUMCON,ioos:station:LUMCON:105:1,2004-10-05T15:00:00Z,29.1874,-90.6654,1.0,4.6,60.0,5.7,'11111222,11111222,11111222' 
LUMCON,ioos:station:LUMCON:105:1,2004-10-05T16:00:00Z,29.1874,-90.6654,1.0,5.1,70.0,6.2,'11111222,11111222,11111222' 
LUMCON,ioos:station:LUMCON:105:1,2004-10-05T17:00:00Z,29.1874,-90.6654,1.0,5.1,80.0,6.2,'11111222,11111222,11111222' 
LUMCON,ioos:station:LUMCON:105:1,2004-10-05T18:00:00Z,29.1874,-90.6654,1.0,4.1,80.0,5.7,'11111222,11111222,11111222' 
LUMCON,ioos:station:LUMCON:105:1,2004-10-05T19:00:00Z,29.1874,-90.6654,1.0,4.6,130.0,5.7,'11111222,11111222,11111222' 
LUMCON,ioos:station:LUMCON:105:1,2004-10-05T20:00:00Z,29.1874,-90.6654,1.0,5.1,140.0,6.2,'11111222,11111222,11111222' 
LUMCON,ioos:station:LUMCON:105:1,2004-10-05T21:00:00Z,29.1874,-90.6654,1.0,2.1,170.0,3.6,'11111222,11111222,11111222' 
LUMCON,ioos:station:LUMCON:105:1,2004-10-05T22:00:00Z,29.1874,-90.6654,1.0,2.6,140.0,3.6,'11111222,11111222,11111222' 
LUMCON,ioos:station:LUMCON:105:1,2004-10-05T23:00:00Z,29.1874,-90.6654,1.0,3.1,120.0,4.1,'11111222,11111222,11111222' 
LUMCON,ioos:station:LUMCON:105:1,2004-10-06T00:00:00Z,29.1874,-90.6654,1.0,5.1,30.0,7.2,'11111222,11111222,11111222' 
LUMCON,ioos:station:LUMCON:105:1,2004-10-06T01:00:00Z,29.1874,-90.6654,1.0,4.1,60.0,5.1,'11111222,11111222,11111222' 
LUMCON,ioos:station:LUMCON:105:1,2004-10-06T02:00:00Z,29.1874,-90.6654,1.0,5.7,60.0,6.2,'11111222,11111222,11111222' 
LUMCON,ioos:station:LUMCON:105:1,2004-10-06T03:00:00Z,29.1874,-90.6654,1.0,6.7,60.0,7.7,'11111222,11111222,11111222' 
LUMCON,ioos:station:LUMCON:105:1,2004-10-06T04:00:00Z,29.1874,-90.6654,1.0,6.7,90.0,7.7,'11111222,11111222,11111222' 
LUMCON,ioos:station:LUMCON:105:1,2004-10-06T05:00:00Z,29.1874,-90.6654,1.0,6.7,100.0,7.7,'11111222,11111222,11111222' 
LUMCON,ioos:station:LUMCON:105:1,2004-10-06T06:00:00Z,29.1874,-90.6654,1.0,6.7,110.0,7.7,'11111222,11111222,11111222' 
LUMCON,ioos:station:LUMCON:105:1,2004-10-06T07:00:00Z,29.1874,-90.6654,1.0,6.7,110.0,8.2,'11111222,11111222,11111222' 
LUMCON,ioos:station:LUMCON:105:1,2004-10-06T08:00:00Z,29.1874,-90.6654,1.0,7.2,120.0,8.2,'11111222,11111222,11111222' 
LUMCON,ioos:station:LUMCON:105:1,2004-10-06T09:00:00Z,29.1874,-90.6654,1.0,6.2,110.0,7.2,'11111222,11111222,11111222' 
LUMCON,ioos:station:LUMCON:105:1,2004-10-06T10:00:00Z,29.1874,-90.6654,1.0,7.2,120.0,8.2,'11111222,11111222,11111222' 
LUMCON,ioos:station:LUMCON:105:1,2004-10-06T11:00:00Z,29.1874,-90.6654,1.0,7.2,110.0,8.8,'11111222,11111222,11111222' 
LUMCON,ioos:station:LUMCON:105:1,2004-10-06T12:00:00Z,29.1874,-90.6654,1.0,7.2,110.0,8.2,'11111222,11111222,11111222' 
LUMCON,ioos:station:LUMCON:105:1,2004-10-06T13:00:00Z,29.1874,-90.6654,1.0,7.2,110.0,8.8,'11111222,11111222,11111222' 
LUMCON,ioos:station:LUMCON:105:1,2004-10-06T15:00:00Z,29.1874,-90.6654,1.0,8.2,120.0,9.8,'11111222,11111222,11111222' 
LUMCON,ioos:station:LUMCON:105:1,2004-10-06T16:00:00Z,29.1874,-90.6654,1.0,8.2,120.0,9.8,'11111222,11111222,11111222' 
LUMCON,ioos:station:LUMCON:105:1,2004-10-06T18:00:00Z,29.1874,-90.6654,1.0,7.7,120.0,9.3,'11111222,11111222,11111222' 
LUMCON,ioos:station:LUMCON:105:1,2004-10-06T20:00:00Z,29.1874,-90.6654,1.0,7.7,120.0,9.3,'11111222,11111222,11111222' 
LUMCON,ioos:station:LUMCON:105:1,2004-10-06T21:00:00Z,29.1874,-90.6654,1.0,8.2,120.0,9.8,'11111222,11111222,11111222' 
LUMCON,ioos:station:LUMCON:105:1,2004-10-06T22:00:00Z,29.1874,-90.6654,1.0,7.7,120.0,8.8,'11111222,11111222,11111222' 
LUMCON,ioos:station:LUMCON:105:1,2004-10-07T00:00:00Z,29.1874,-90.6654,1.0,8.2,110.0,9.3,'11111222,11111222,11111222' 
LUMCON,ioos:station:LUMCON:105:1,2004-10-07T02:00:00Z,29.1874,-90.6654,1.0,8.8,110.0,10.8,'11111222,11111222,11111222' 
LUMCON,ioos:station:LUMCON:105:1,2004-10-07T04:00:00Z,29.1874,-90.6654,1.0,9.8,120.0,11.8,'11111222,11111222,11111222' 
LUMCON,ioos:station:LUMCON:105:1,2004-10-07T06:00:00Z,29.1874,-90.6654,1.0,10.8,140.0,14.9,'11111222,11111222,11111222' 
LUMCON,ioos:station:LUMCON:105:1,2004-10-07T08:00:00Z,29.1874,-90.6654,1.0,9.8,120.0,12.4,'11111222,11111222,11111222' 
LUMCON,ioos:station:LUMCON:105:1,2004-10-07T10:00:00Z,29.1874,-90.6654,1.0,9.8,110.0,11.8,'11111222,11111222,11111222' 
LUMCON,ioos:station:LUMCON:105:1,2004-10-07T12:00:00Z,29.1874,-90.6654,1.0,10.3,110.0,12.9,'11111222,11111222,11111222' 
LUMCON,ioos:station:LUMCON:105:1,2004-10-07T14:00:00Z,29.1874,-90.6654,1.0,12.9,130.0,16.0,'11111222,11111222,11111222' 
LUMCON,ioos:station:LUMCON:105:1,2004-10-07T16:00:00Z,29.1874,-90.6654,1.0,9.3,120.0,12.4,'11111222,11111222,11111222' 
LUMCON,ioos:station:LUMCON:105:1,2004-10-07T22:00:00Z,29.1874,-90.6654,1.0,7.7,130.0,9.3,'11111222,11111222,11111222' 
LUMCON,ioos:station:LUMCON:105:1,2004-10-08T00:00:00Z,29.1874,-90.6654,1.0,9.8,140.0,11.3,'11111222,11111222,11111222' 
LUMCON,ioos:station:LUMCON:105:1,2004-10-08T02:00:00Z,29.1874,-90.6654,1.0,10.3,120.0,12.9,'11111222,11111222,11111222' 
LUMCON,ioos:station:LUMCON:105:1,2004-10-08T04:00:00Z,29.1874,-90.6654,1.0,11.3,130.0,13.9,'11111222,11111222,11111222' 
LUMCON,ioos:station:LUMCON:105:1,2004-10-08T06:00:00Z,29.1874,-90.6654,1.0,10.8,130.0,16.5,'11111222,11111222,11111222' 
LUMCON,ioos:station:LUMCON:105:1,2004-10-08T08:00:00Z,29.1874,-90.6654,1.0,9.8,110.0,11.8,'11111222,11111222,11111222' 
LUMCON,ioos:station:LUMCON:105:1,2004-10-08T10:00:00Z,29.1874,-90.6654,1.0,9.8,110.0,11.8,'11111222,11111222,11111222' 
LUMCON,ioos:station:LUMCON:105:1,2004-10-08T11:00:00Z,29.1874,-90.6654,1.0,10.8,130.0,13.4,'11111222,11111222,11111222' 
LUMCON,ioos:station:LUMCON:105:1,2004-10-08T12:00:00Z,29.1874,-90.6654,1.0,12.4,120.0,16.0,'11111222,11111222,11111222' 
LUMCON,ioos:station:LUMCON:105:1,2004-10-08T16:00:00Z,29.1874,-90.6654,1.0,11.8,120.0,14.4,'11111222,11111222,11111222' 
LUMCON,ioos:station:LUMCON:105:1,2004-10-08T18:00:00Z,29.1874,-90.6654,1.0,11.3,180.0,14.4,'11111222,11111222,11111222' 
LUMCON,ioos:station:LUMCON:105:1,2004-10-08T20:00:00Z,29.1874,-90.6654,1.0,11.3,170.0,14.9,'11111222,11111222,11111222' 
LUMCON,ioos:station:LUMCON:105:1,2004-10-08T22:00:00Z,29.1874,-90.6654,1.0,11.8,150.0,14.4,'11111222,11111222,11111222' 
LUMCON,ioos:station:LUMCON:105:1,2004-10-09T00:00:00Z,29.1874,-90.6654,1.0,9.3,120.0,12.9,'11111222,11111222,11111222' 
LUMCON,ioos:station:LUMCON:105:1,2004-10-09T04:00:00Z,29.1874,-90.6654,1.0,6.2,150.0,7.2,'11111222,11111222,11111222' 
LUMCON,ioos:station:LUMCON:105:1,2004-10-09T08:00:00Z,29.1874,-90.6654,1.0,6.2,170.0,8.8,'11111222,11111222,11111222' 
LUMCON,ioos:station:LUMCON:105:1,2004-10-09T10:00:00Z,29.1874,-90.6654,1.0,4.6,120.0,5.1,'11111222,11111222,11111222' 
LUMCON,ioos:station:LUMCON:105:1,2004-10-09T12:00:00Z,29.1874,-90.6654,1.0,0.5,200.0,1.5,'11111222,11111222,11111222' 
LUMCON,ioos:station:LUMCON:105:1,2004-10-09T14:00:00Z,29.1874,-90.6654,1.0,4.1,100.0,5.7,'11111222,11111222,11111222' 
LUMCON,ioos:station:LUMCON:105:1,2004-10-09T16:00:00Z,29.1874,-90.6654,1.0,2.6,70.0,3.1,'11111222,11111222,11111222' 
LUMCON,ioos:station:LUMCON:105:1,2004-10-09T17:00:00Z,29.1874,-90.6654,1.0,5.7,130.0,6.7,'11111222,11111222,11111222' 
LUMCON,ioos:station:LUMCON:105:1,2004-10-09T18:00:00Z,29.1874,-90.6654,1.0,5.1,110.0,5.7,'11111222,11111222,11111222' 
LUMCON,ioos:station:LUMCON:105:1,2004-10-09T20:00:00Z,29.1874,-90.6654,1.0,7.7,140.0,9.8,'11111222,11111222,11111222' 
LUMCON,ioos:station:LUMCON:105:1,2004-10-09T22:00:00Z,29.1874,-90.6654,1.0,6.7,190.0,8.8,'11111222,11111222,11111222' 
LUMCON,ioos:station:LUMCON:105:1,2004-10-10T02:00:00Z,29.1874,-90.6654,1.0,13.4,120.0,17.5,'11111222,11111222,11111222' 
LUMCON,ioos:station:LUMCON:105:1,2004-10-10T04:00:00Z,29.1874,-90.6654,1.0,12.4,130.0,15.4,'11111222,11111222,11111222' 
LUMCON,ioos:station:LUMCON:105:1,2004-10-10T06:00:00Z,29.1874,-90.6654,1.0,13.4,120.0,16.0,'11111222,11111222,11111222' 
LUMCON,ioos:station:LUMCON:105:1,2004-10-10T08:00:00Z,29.1874,-90.6654,1.0,12.4,120.0,16.5,'11111222,11111222,11111222' 
LUMCON,ioos:station:LUMCON:105:1,2004-10-10T10:00:00Z,29.1874,-90.6654,1.0,10.8,210.0,12.9,'11111222,11111222,11111222' 
LUMCON,ioos:station:LUMCON:105:1,2004-10-10T12:00:00Z,29.1874,-90.6654,1.0,10.3,240.0,12.9,'11111222,11111222,11111222' 
LUMCON,ioos:station:LUMCON:105:1,2004-10-10T14:00:00Z,29.1874,-90.6654,1.0,8.8,240.0,10.8,'11111222,11111222,11111222' 
LUMCON,ioos:station:LUMCON:105:1,2004-10-10T16:00:00Z,29.1874,-90.6654,1.0,9.3,240.0,11.3,'11111222,11111222,11111222' 
LUMCON,ioos:station:LUMCON:105:1,2004-10-11T00:00:00Z,29.1874,-90.6654,1.0,2.6,280.0,4.1,'11111222,11111222,11111222' 
LUMCON,ioos:station:LUMCON:105:1,2004-10-11T02:00:00Z,29.1874,-90.6654,1.0,1.5,290.0,2.1,'11111222,11111222,11111222' 
LUMCON,ioos:station:LUMCON:105:1,2004-10-11T04:00:00Z,29.1874,-90.6654,1.0,2.1,220.0,2.6,'11111222,11111222,11111222' 
LUMCON,ioos:station:LUMCON:105:1,2004-10-11T06:00:00Z,29.1874,-90.6654,1.0,2.6,260.0,3.1,'11111222,11111222,11111222' 
LUMCON,ioos:station:LUMCON:105:1,2004-10-11T08:00:00Z,29.1874,-90.6654,1.0,2.6,290.0,4.1,'11111222,11111222,11111222' 
LUMCON,ioos:station:LUMCON:105:1,2004-10-11T10:00:00Z,29.1874,-90.6654,1.0,3.1,300.0,5.7,'11111222,11111222,11111222' 
LUMCON,ioos:station:LUMCON:105:1,2004-10-11T12:00:00Z,29.1874,-90.6654,1.0,3.1,320.0,3.6,'11111222,11111222,11111222' 
LUMCON,ioos:station:LUMCON:105:1,2004-10-11T15:00:00Z,29.1874,-90.6654,1.0,4.6,290.0,7.2,'11111222,11111222,11111222' 
LUMCON,ioos:station:LUMCON:105:1,2004-10-11T16:00:00Z,29.1874,-90.6654,1.0,4.6,300.0,7.2,'11111222,11111222,11111222' 
LUMCON,ioos:station:LUMCON:105:1,2004-10-11T17:00:00Z,29.1874,-90.6654,1.0,5.7,290.0,8.2,'11111222,11111222,11111222' 
LUMCON,ioos:station:LUMCON:105:1,2004-10-11T18:00:00Z,29.1874,-90.6654,1.0,5.1,290.0,8.2,'11111222,11111222,11111222' 
LUMCON,ioos:station:LUMCON:105:1,2004-10-11T20:00:00Z,29.1874,-90.6654,1.0,6.7,300.0,9.8,'11111222,11111222,11111222' 
LUMCON,ioos:station:LUMCON:105:1,2004-10-11T22:00:00Z,29.1874,-90.6654,1.0,6.2,290.0,8.8,'11111222,11111222,11111222' 
LUMCON,ioos:station:LUMCON:105:1,2004-10-11T23:00:00Z,29.1874,-90.6654,1.0,5.7,300.0,8.8,'11111222,11111222,11111222' 
LUMCON,ioos:station:LUMCON:105:1,2004-10-12T00:00:00Z,29.1874,-90.6654,1.0,5.1,290.0,7.7,'11111222,11111222,11111222' 
LUMCON,ioos:station:LUMCON:105:1,2004-10-12T01:00:00Z,29.1874,-90.6654,1.0,3.6,290.0,5.1,'11111222,11111222,11111222' 
LUMCON,ioos:station:LUMCON:105:1,2004-10-12T02:00:00Z,29.1874,-90.6654,1.0,3.1,290.0,5.1,'11111222,11111222,11111222' 
LUMCON,ioos:station:LUMCON:105:1,2004-10-12T04:00:00Z,29.1874,-90.6654,1.0,3.1,290.0,4.6,'11111222,11111222,11111222' 
LUMCON,ioos:station:LUMCON:105:1,2004-10-12T06:00:00Z,29.1874,-90.6654,1.0,2.6,320.0,3.1,'11111222,11111222,11111222' 
LUMCON,ioos:station:LUMCON:105:1,2004-10-12T07:00:00Z,29.1874,-90.6654,1.0,2.6,310.0,3.6,'11111222,11111222,11111222' 
LUMCON,ioos:station:LUMCON:105:1,2004-10-12T08:00:00Z,29.1874,-90.6654,1.0,2.1,310.0,3.1,'11111222,11111222,11111222' 